owner,sensor,date,latitude,longitude,sea_surface_height_above_sea_level,qcFlag 
COMPS,ioos:station:USF.COMPS:ANC:1,2012-10-01T00:00:00Z,28.1930,-82.7890,-0.152,1111122 
COMPS,ioos:station:USF.COMPS:ANC:1,2012-10-01T00:06:00Z,28.1930,-82.7890,-0.148,1111122 
COMPS,ioos:station:USF.COMPS:ANC:1,2012-10-01T00:12:00Z,28.1930,-82.7890,-0.143,1111122 
COMPS,ioos:station:USF.COMPS:ANC:1,2012-10-01T00:18:00Z,28.1930,-82.7890,-0.126,1111122 
COMPS,ioos:station:USF.COMPS:ANC:1,2012-10-01T00:24:00Z,28.1930,-82.7890,-0.111,1111122 
COMPS,ioos:station:USF.COMPS:ANC:1,2012-10-01T00:30:00Z,28.1930,-82.7890,-0.099,1111122 
COMPS,ioos:station:USF.COMPS:ANC:1,2012-10-01T00:36:00Z,28.1930,-82.7890,-0.082,1111122 
COMPS,ioos:station:USF.COMPS:ANC:1,2012-10-01T00:42:00Z,28.1930,-82.7890,-0.057,1111122 
COMPS,ioos:station:USF.COMPS:ANC:1,2012-10-01T00:48:00Z,28.1930,-82.7890,-0.029,1111122 
COMPS,ioos:station:USF.COMPS:ANC:1,2012-10-01T00:54:00Z,28.1930,-82.7890,-0.005,1111122 
COMPS,ioos:station:USF.COMPS:ANC:1,2012-10-01T01:00:00Z,28.1930,-82.7890,0.018,1111122 
COMPS,ioos:station:USF.COMPS:ANC:1,2012-10-01T01:06:00Z,28.1930,-82.7890,0.043,1111122 
COMPS,ioos:station:USF.COMPS:ANC:1,2012-10-01T01:12:00Z,28.1930,-82.7890,0.07,1111122 
COMPS,ioos:station:USF.COMPS:ANC:1,2012-10-01T01:18:00Z,28.1930,-82.7890,0.091,1111122 
COMPS,ioos:station:USF.COMPS:ANC:1,2012-10-01T01:24:00Z,28.1930,-82.7890,0.113,1111122 
COMPS,ioos:station:USF.COMPS:ANC:1,2012-10-01T01:30:00Z,28.1930,-82.7890,0.141,1111122 
COMPS,ioos:station:USF.COMPS:ANC:1,2012-10-01T01:36:00Z,28.1930,-82.7890,0.166,1111122 
COMPS,ioos:station:USF.COMPS:ANC:1,2012-10-01T01:42:00Z,28.1930,-82.7890,0.191,1111122 
COMPS,ioos:station:USF.COMPS:ANC:1,2012-10-01T01:48:00Z,28.1930,-82.7890,0.217,1111122 
COMPS,ioos:station:USF.COMPS:ANC:1,2012-10-01T01:54:00Z,28.1930,-82.7890,0.236,1111122 
COMPS,ioos:station:USF.COMPS:ANC:1,2012-10-01T02:00:00Z,28.1930,-82.7890,0.255,1111122 
COMPS,ioos:station:USF.COMPS:ANC:1,2012-10-01T02:06:00Z,28.1930,-82.7890,0.277,1111122 
COMPS,ioos:station:USF.COMPS:ANC:1,2012-10-01T02:12:00Z,28.1930,-82.7890,0.298,1111122 
COMPS,ioos:station:USF.COMPS:ANC:1,2012-10-01T02:18:00Z,28.1930,-82.7890,0.321,1111122 
COMPS,ioos:station:USF.COMPS:ANC:1,2012-10-01T02:24:00Z,28.1930,-82.7890,0.346,1111122 
COMPS,ioos:station:USF.COMPS:ANC:1,2012-10-01T02:30:00Z,28.1930,-82.7890,0.369,1111122 
COMPS,ioos:station:USF.COMPS:ANC:1,2012-10-01T02:36:00Z,28.1930,-82.7890,0.388,1111122 
COMPS,ioos:station:USF.COMPS:ANC:1,2012-10-01T02:42:00Z,28.1930,-82.7890,0.393,1111122 
COMPS,ioos:station:USF.COMPS:ANC:1,2012-10-01T02:48:00Z,28.1930,-82.7890,0.433,1111122 
COMPS,ioos:station:USF.COMPS:ANC:1,2012-10-01T02:54:00Z,28.1930,-82.7890,0.443,1111122 
COMPS,ioos:station:USF.COMPS:ANC:1,2012-10-01T03:00:00Z,28.1930,-82.7890,0.464,1111122 
COMPS,ioos:station:USF.COMPS:ANC:1,2012-10-01T03:06:00Z,28.1930,-82.7890,0.483,1111122 
COMPS,ioos:station:USF.COMPS:ANC:1,2012-10-01T03:12:00Z,28.1930,-82.7890,0.497,1111122 
COMPS,ioos:station:USF.COMPS:ANC:1,2012-10-01T03:18:00Z,28.1930,-82.7890,0.508,1111122 
COMPS,ioos:station:USF.COMPS:ANC:1,2012-10-01T03:24:00Z,28.1930,-82.7890,0.512,1111122 
COMPS,ioos:station:USF.COMPS:ANC:1,2012-10-01T03:30:00Z,28.1930,-82.7890,0.518,1111122 
COMPS,ioos:station:USF.COMPS:ANC:1,2012-10-01T03:36:00Z,28.1930,-82.7890,0.529,1111122 
COMPS,ioos:station:USF.COMPS:ANC:1,2012-10-01T03:42:00Z,28.1930,-82.7890,0.537,1111122 
COMPS,ioos:station:USF.COMPS:ANC:1,2012-10-01T03:48:00Z,28.1930,-82.7890,0.543,1111122 
COMPS,ioos:station:USF.COMPS:ANC:1,2012-10-01T03:54:00Z,28.1930,-82.7890,0.562,1111122 
COMPS,ioos:station:USF.COMPS:ANC:1,2012-10-01T04:00:00Z,28.1930,-82.7890,0.561,1111122 
COMPS,ioos:station:USF.COMPS:ANC:1,2012-10-01T04:06:00Z,28.1930,-82.7890,0.567,1111122 
COMPS,ioos:station:USF.COMPS:ANC:1,2012-10-01T04:12:00Z,28.1930,-82.7890,0.574,1111122 
COMPS,ioos:station:USF.COMPS:ANC:1,2012-10-01T04:18:00Z,28.1930,-82.7890,0.585,1111122 
COMPS,ioos:station:USF.COMPS:ANC:1,2012-10-01T04:24:00Z,28.1930,-82.7890,0.585,1111122 
COMPS,ioos:station:USF.COMPS:ANC:1,2012-10-01T04:30:00Z,28.1930,-82.7890,0.573,1111122 
COMPS,ioos:station:USF.COMPS:ANC:1,2012-10-01T04:36:00Z,28.1930,-82.7890,0.583,1111122 
COMPS,ioos:station:USF.COMPS:ANC:1,2012-10-01T04:42:00Z,28.1930,-82.7890,0.592,1111122 
COMPS,ioos:station:USF.COMPS:ANC:1,2012-10-01T04:48:00Z,28.1930,-82.7890,0.585,1111122 
COMPS,ioos:station:USF.COMPS:ANC:1,2012-10-01T04:54:00Z,28.1930,-82.7890,0.59,1111122 
COMPS,ioos:station:USF.COMPS:ANC:1,2012-10-01T05:00:00Z,28.1930,-82.7890,0.581,1111122 
COMPS,ioos:station:USF.COMPS:ANC:1,2012-10-01T05:06:00Z,28.1930,-82.7890,0.587,1111122 
COMPS,ioos:station:USF.COMPS:ANC:1,2012-10-01T05:12:00Z,28.1930,-82.7890,0.58,1111122 
COMPS,ioos:station:USF.COMPS:ANC:1,2012-10-01T05:18:00Z,28.1930,-82.7890,0.55,1111122 
COMPS,ioos:station:USF.COMPS:ANC:1,2012-10-01T05:24:00Z,28.1930,-82.7890,0.548,1111122 
COMPS,ioos:station:USF.COMPS:ANC:1,2012-10-01T05:30:00Z,28.1930,-82.7890,0.528,1111122 
COMPS,ioos:station:USF.COMPS:ANC:1,2012-10-01T05:36:00Z,28.1930,-82.7890,0.524,1111122 
COMPS,ioos:station:USF.COMPS:ANC:1,2012-10-01T05:42:00Z,28.1930,-82.7890,0.532,1111122 
COMPS,ioos:station:USF.COMPS:ANC:1,2012-10-01T05:48:00Z,28.1930,-82.7890,0.527,1111122 
COMPS,ioos:station:USF.COMPS:ANC:1,2012-10-01T05:54:00Z,28.1930,-82.7890,0.518,1111122 
COMPS,ioos:station:USF.COMPS:ANC:1,2012-10-01T06:00:00Z,28.1930,-82.7890,0.505,1111122 
COMPS,ioos:station:USF.COMPS:ANC:1,2012-10-01T06:06:00Z,28.1930,-82.7890,0.485,1111122 
COMPS,ioos:station:USF.COMPS:ANC:1,2012-10-01T06:12:00Z,28.1930,-82.7890,0.473,1111122 
COMPS,ioos:station:USF.COMPS:ANC:1,2012-10-01T06:18:00Z,28.1930,-82.7890,0.467,1111122 
COMPS,ioos:station:USF.COMPS:ANC:1,2012-10-01T06:24:00Z,28.1930,-82.7890,0.446,1111122 
COMPS,ioos:station:USF.COMPS:ANC:1,2012-10-01T06:30:00Z,28.1930,-82.7890,0.406,1111122 
COMPS,ioos:station:USF.COMPS:ANC:1,2012-10-01T06:36:00Z,28.1930,-82.7890,0.405,1111122 
COMPS,ioos:station:USF.COMPS:ANC:1,2012-10-01T06:42:00Z,28.1930,-82.7890,0.391,1111122 
COMPS,ioos:station:USF.COMPS:ANC:1,2012-10-01T06:48:00Z,28.1930,-82.7890,0.383,1111122 
COMPS,ioos:station:USF.COMPS:ANC:1,2012-10-01T06:54:00Z,28.1930,-82.7890,0.358,1111122 
COMPS,ioos:station:USF.COMPS:ANC:1,2012-10-01T07:00:00Z,28.1930,-82.7890,0.33,1111122 
COMPS,ioos:station:USF.COMPS:ANC:1,2012-10-01T07:06:00Z,28.1930,-82.7890,0.31,1111122 
COMPS,ioos:station:USF.COMPS:ANC:1,2012-10-01T07:12:00Z,28.1930,-82.7890,0.302,1111122 
COMPS,ioos:station:USF.COMPS:ANC:1,2012-10-01T07:18:00Z,28.1930,-82.7890,0.291,1111122 
COMPS,ioos:station:USF.COMPS:ANC:1,2012-10-01T07:24:00Z,28.1930,-82.7890,0.276,1111122 
COMPS,ioos:station:USF.COMPS:ANC:1,2012-10-01T07:30:00Z,28.1930,-82.7890,0.254,1111122 
COMPS,ioos:station:USF.COMPS:ANC:1,2012-10-01T07:36:00Z,28.1930,-82.7890,0.219,1111122 
COMPS,ioos:station:USF.COMPS:ANC:1,2012-10-01T07:42:00Z,28.1930,-82.7890,0.198,1111122 
COMPS,ioos:station:USF.COMPS:ANC:1,2012-10-01T07:48:00Z,28.1930,-82.7890,0.18,1111122 
COMPS,ioos:station:USF.COMPS:ANC:1,2012-10-01T07:54:00Z,28.1930,-82.7890,0.162,1111122 
COMPS,ioos:station:USF.COMPS:ANC:1,2012-10-01T08:00:00Z,28.1930,-82.7890,0.148,1111122 
COMPS,ioos:station:USF.COMPS:ANC:1,2012-10-01T08:06:00Z,28.1930,-82.7890,0.13,1111122 
COMPS,ioos:station:USF.COMPS:ANC:1,2012-10-01T08:12:00Z,28.1930,-82.7890,0.105,1111122 
COMPS,ioos:station:USF.COMPS:ANC:1,2012-10-01T08:18:00Z,28.1930,-82.7890,0.077,1111122 
COMPS,ioos:station:USF.COMPS:ANC:1,2012-10-01T08:24:00Z,28.1930,-82.7890,0.06,1111122 
COMPS,ioos:station:USF.COMPS:ANC:1,2012-10-01T08:30:00Z,28.1930,-82.7890,0.046,1111122 
COMPS,ioos:station:USF.COMPS:ANC:1,2012-10-01T08:36:00Z,28.1930,-82.7890,0.021,1111122 
COMPS,ioos:station:USF.COMPS:ANC:1,2012-10-01T08:42:00Z,28.1930,-82.7890,-0.003,1111122 
COMPS,ioos:station:USF.COMPS:ANC:1,2012-10-01T08:48:00Z,28.1930,-82.7890,-0.025,1111122 
COMPS,ioos:station:USF.COMPS:ANC:1,2012-10-01T08:54:00Z,28.1930,-82.7890,-0.049,1111122 
COMPS,ioos:station:USF.COMPS:ANC:1,2012-10-01T09:00:00Z,28.1930,-82.7890,-0.074,1111122 
COMPS,ioos:station:USF.COMPS:ANC:1,2012-10-01T09:06:00Z,28.1930,-82.7890,-0.092,1111122 
COMPS,ioos:station:USF.COMPS:ANC:1,2012-10-01T09:12:00Z,28.1930,-82.7890,-0.102,1111122 
COMPS,ioos:station:USF.COMPS:ANC:1,2012-10-01T09:18:00Z,28.1930,-82.7890,-0.122,1111122 
COMPS,ioos:station:USF.COMPS:ANC:1,2012-10-01T09:24:00Z,28.1930,-82.7890,-0.146,1111122 
COMPS,ioos:station:USF.COMPS:ANC:1,2012-10-01T09:30:00Z,28.1930,-82.7890,-0.174,1111122 
COMPS,ioos:station:USF.COMPS:ANC:1,2012-10-01T09:36:00Z,28.1930,-82.7890,-0.201,1111122 
COMPS,ioos:station:USF.COMPS:ANC:1,2012-10-01T09:42:00Z,28.1930,-82.7890,-0.221,1111122 
COMPS,ioos:station:USF.COMPS:ANC:1,2012-10-01T09:48:00Z,28.1930,-82.7890,-0.244,1111122 
COMPS,ioos:station:USF.COMPS:ANC:1,2012-10-01T09:54:00Z,28.1930,-82.7890,-0.264,1111122 
COMPS,ioos:station:USF.COMPS:ANC:1,2012-10-01T10:00:00Z,28.1930,-82.7890,-0.281,1111122 
COMPS,ioos:station:USF.COMPS:ANC:1,2012-10-01T10:06:00Z,28.1930,-82.7890,-0.297,1111122 
COMPS,ioos:station:USF.COMPS:ANC:1,2012-10-01T10:12:00Z,28.1930,-82.7890,-0.316,1111122 
COMPS,ioos:station:USF.COMPS:ANC:1,2012-10-01T10:18:00Z,28.1930,-82.7890,-0.336,1111122 
COMPS,ioos:station:USF.COMPS:ANC:1,2012-10-01T10:24:00Z,28.1930,-82.7890,-0.351,1111122 
COMPS,ioos:station:USF.COMPS:ANC:1,2012-10-01T10:30:00Z,28.1930,-82.7890,-0.362,1111122 
COMPS,ioos:station:USF.COMPS:ANC:1,2012-10-01T10:36:00Z,28.1930,-82.7890,-0.37,1111122 
COMPS,ioos:station:USF.COMPS:ANC:1,2012-10-01T10:42:00Z,28.1930,-82.7890,-0.382,1111122 
COMPS,ioos:station:USF.COMPS:ANC:1,2012-10-01T10:48:00Z,28.1930,-82.7890,-0.404,1111122 
COMPS,ioos:station:USF.COMPS:ANC:1,2012-10-01T10:54:00Z,28.1930,-82.7890,-0.429,1111122 
COMPS,ioos:station:USF.COMPS:ANC:1,2012-10-01T11:00:00Z,28.1930,-82.7890,-0.451,1111122 
COMPS,ioos:station:USF.COMPS:ANC:1,2012-10-01T11:06:00Z,28.1930,-82.7890,-0.463,1111122 
COMPS,ioos:station:USF.COMPS:ANC:1,2012-10-01T11:12:00Z,28.1930,-82.7890,-0.467,1111122 
COMPS,ioos:station:USF.COMPS:ANC:1,2012-10-01T11:18:00Z,28.1930,-82.7890,-0.47,1111122 
COMPS,ioos:station:USF.COMPS:ANC:1,2012-10-01T11:24:00Z,28.1930,-82.7890,-0.466,1111122 
COMPS,ioos:station:USF.COMPS:ANC:1,2012-10-01T11:30:00Z,28.1930,-82.7890,-0.465,1111122 
COMPS,ioos:station:USF.COMPS:ANC:1,2012-10-01T11:36:00Z,28.1930,-82.7890,-0.469,1111122 
COMPS,ioos:station:USF.COMPS:ANC:1,2012-10-01T11:42:00Z,28.1930,-82.7890,-0.473,1111122 
COMPS,ioos:station:USF.COMPS:ANC:1,2012-10-01T11:48:00Z,28.1930,-82.7890,-0.469,1111122 
COMPS,ioos:station:USF.COMPS:ANC:1,2012-10-01T11:54:00Z,28.1930,-82.7890,-0.456,1111122 
COMPS,ioos:station:USF.COMPS:ANC:1,2012-10-01T12:00:00Z,28.1930,-82.7890,-0.439,1111122 
COMPS,ioos:station:USF.COMPS:ANC:1,2012-10-01T12:06:00Z,28.1930,-82.7890,-0.42,1111122 
COMPS,ioos:station:USF.COMPS:ANC:1,2012-10-01T12:12:00Z,28.1930,-82.7890,-0.404,1111122 
COMPS,ioos:station:USF.COMPS:ANC:1,2012-10-01T12:18:00Z,28.1930,-82.7890,-0.392,1111122 
COMPS,ioos:station:USF.COMPS:ANC:1,2012-10-01T12:24:00Z,28.1930,-82.7890,-0.382,1111122 
COMPS,ioos:station:USF.COMPS:ANC:1,2012-10-01T12:30:00Z,28.1930,-82.7890,-0.373,1111122 
COMPS,ioos:station:USF.COMPS:ANC:1,2012-10-01T12:36:00Z,28.1930,-82.7890,-0.357,1111122 
COMPS,ioos:station:USF.COMPS:ANC:1,2012-10-01T12:42:00Z,28.1930,-82.7890,-0.333,1111122 
COMPS,ioos:station:USF.COMPS:ANC:1,2012-10-01T12:48:00Z,28.1930,-82.7890,-0.311,1111122 
COMPS,ioos:station:USF.COMPS:ANC:1,2012-10-01T12:54:00Z,28.1930,-82.7890,-0.281,1111122 
COMPS,ioos:station:USF.COMPS:ANC:1,2012-10-01T13:00:00Z,28.1930,-82.7890,-0.288,1111122 
COMPS,ioos:station:USF.COMPS:ANC:1,2012-10-01T13:06:00Z,28.1930,-82.7890,-0.28,1111122 
COMPS,ioos:station:USF.COMPS:ANC:1,2012-10-01T13:12:00Z,28.1930,-82.7890,-0.26,1111122 
COMPS,ioos:station:USF.COMPS:ANC:1,2012-10-01T13:18:00Z,28.1930,-82.7890,-0.238,1111122 
COMPS,ioos:station:USF.COMPS:ANC:1,2012-10-01T13:24:00Z,28.1930,-82.7890,-0.209,1111122 
COMPS,ioos:station:USF.COMPS:ANC:1,2012-10-01T13:30:00Z,28.1930,-82.7890,-0.18,1111122 
COMPS,ioos:station:USF.COMPS:ANC:1,2012-10-01T13:36:00Z,28.1930,-82.7890,-0.153,1111122 
COMPS,ioos:station:USF.COMPS:ANC:1,2012-10-01T13:42:00Z,28.1930,-82.7890,-0.127,1111122 
COMPS,ioos:station:USF.COMPS:ANC:1,2012-10-01T13:48:00Z,28.1930,-82.7890,-0.103,1111122 
COMPS,ioos:station:USF.COMPS:ANC:1,2012-10-01T13:54:00Z,28.1930,-82.7890,-0.077,1111122 
COMPS,ioos:station:USF.COMPS:ANC:1,2012-10-01T14:00:00Z,28.1930,-82.7890,-0.06,1111122 
COMPS,ioos:station:USF.COMPS:ANC:1,2012-10-01T14:06:00Z,28.1930,-82.7890,-0.04,1111122 
COMPS,ioos:station:USF.COMPS:ANC:1,2012-10-01T14:12:00Z,28.1930,-82.7890,-0.012,1111122 
COMPS,ioos:station:USF.COMPS:ANC:1,2012-10-01T14:18:00Z,28.1930,-82.7890,0.014,1111122 
COMPS,ioos:station:USF.COMPS:ANC:1,2012-10-01T14:24:00Z,28.1930,-82.7890,0.04,1111122 
COMPS,ioos:station:USF.COMPS:ANC:1,2012-10-01T14:30:00Z,28.1930,-82.7890,0.064,1111122 
COMPS,ioos:station:USF.COMPS:ANC:1,2012-10-01T14:36:00Z,28.1930,-82.7890,0.082,1111122 
COMPS,ioos:station:USF.COMPS:ANC:1,2012-10-01T14:42:00Z,28.1930,-82.7890,0.102,1111122 
COMPS,ioos:station:USF.COMPS:ANC:1,2012-10-01T14:48:00Z,28.1930,-82.7890,0.122,1111122 
COMPS,ioos:station:USF.COMPS:ANC:1,2012-10-01T14:54:00Z,28.1930,-82.7890,0.147,1111122 
COMPS,ioos:station:USF.COMPS:ANC:1,2012-10-01T15:00:00Z,28.1930,-82.7890,0.181,1111122 
COMPS,ioos:station:USF.COMPS:ANC:1,2012-10-01T15:06:00Z,28.1930,-82.7890,0.204,1111122 
COMPS,ioos:station:USF.COMPS:ANC:1,2012-10-01T15:12:00Z,28.1930,-82.7890,0.234,1111122 
COMPS,ioos:station:USF.COMPS:ANC:1,2012-10-01T15:18:00Z,28.1930,-82.7890,0.25,1111122 
COMPS,ioos:station:USF.COMPS:ANC:1,2012-10-01T15:24:00Z,28.1930,-82.7890,0.275,1111122 
COMPS,ioos:station:USF.COMPS:ANC:1,2012-10-01T15:30:00Z,28.1930,-82.7890,0.299,1111122 
COMPS,ioos:station:USF.COMPS:ANC:1,2012-10-01T15:36:00Z,28.1930,-82.7890,0.323,1111122 
COMPS,ioos:station:USF.COMPS:ANC:1,2012-10-01T15:42:00Z,28.1930,-82.7890,0.358,1111122 
COMPS,ioos:station:USF.COMPS:ANC:1,2012-10-01T15:48:00Z,28.1930,-82.7890,0.379,1111122 
COMPS,ioos:station:USF.COMPS:ANC:1,2012-10-01T15:54:00Z,28.1930,-82.7890,0.362,1111122 
COMPS,ioos:station:USF.COMPS:ANC:1,2012-10-01T16:00:00Z,28.1930,-82.7890,0.419,1111122 
COMPS,ioos:station:USF.COMPS:ANC:1,2012-10-01T16:06:00Z,28.1930,-82.7890,0.443,1111122 
COMPS,ioos:station:USF.COMPS:ANC:1,2012-10-01T16:12:00Z,28.1930,-82.7890,0.472,1111122 
COMPS,ioos:station:USF.COMPS:ANC:1,2012-10-01T16:18:00Z,28.1930,-82.7890,0.48,1111122 
COMPS,ioos:station:USF.COMPS:ANC:1,2012-10-01T16:24:00Z,28.1930,-82.7890,0.486,1111122 
COMPS,ioos:station:USF.COMPS:ANC:1,2012-10-01T16:30:00Z,28.1930,-82.7890,0.509,1111122 
COMPS,ioos:station:USF.COMPS:ANC:1,2012-10-01T16:36:00Z,28.1930,-82.7890,0.52,1111122 
COMPS,ioos:station:USF.COMPS:ANC:1,2012-10-01T16:42:00Z,28.1930,-82.7890,0.53,1111122 
COMPS,ioos:station:USF.COMPS:ANC:1,2012-10-01T16:48:00Z,28.1930,-82.7890,0.539,1111122 
COMPS,ioos:station:USF.COMPS:ANC:1,2012-10-01T16:54:00Z,28.1930,-82.7890,0.547,1111122 
COMPS,ioos:station:USF.COMPS:ANC:1,2012-10-01T17:00:00Z,28.1930,-82.7890,0.561,1111122 
COMPS,ioos:station:USF.COMPS:ANC:1,2012-10-01T17:06:00Z,28.1930,-82.7890,0.567,1111122 
COMPS,ioos:station:USF.COMPS:ANC:1,2012-10-01T17:12:00Z,28.1930,-82.7890,0.58,1111122 
COMPS,ioos:station:USF.COMPS:ANC:1,2012-10-01T17:18:00Z,28.1930,-82.7890,0.591,1111122 
COMPS,ioos:station:USF.COMPS:ANC:1,2012-10-01T17:24:00Z,28.1930,-82.7890,0.585,1111122 
COMPS,ioos:station:USF.COMPS:ANC:1,2012-10-01T17:30:00Z,28.1930,-82.7890,0.587,1111122 
COMPS,ioos:station:USF.COMPS:ANC:1,2012-10-01T17:36:00Z,28.1930,-82.7890,0.596,1111122 
COMPS,ioos:station:USF.COMPS:ANC:1,2012-10-01T17:42:00Z,28.1930,-82.7890,0.591,1111122 
COMPS,ioos:station:USF.COMPS:ANC:1,2012-10-01T17:48:00Z,28.1930,-82.7890,0.609,1111122 
COMPS,ioos:station:USF.COMPS:ANC:1,2012-10-01T17:54:00Z,28.1930,-82.7890,0.604,1111122 
COMPS,ioos:station:USF.COMPS:ANC:1,2012-10-01T18:00:00Z,28.1930,-82.7890,0.607,1111122 
COMPS,ioos:station:USF.COMPS:ANC:1,2012-10-01T18:06:00Z,28.1930,-82.7890,0.594,1111122 
COMPS,ioos:station:USF.COMPS:ANC:1,2012-10-01T18:12:00Z,28.1930,-82.7890,0.584,1111122 
COMPS,ioos:station:USF.COMPS:ANC:1,2012-10-01T18:18:00Z,28.1930,-82.7890,0.575,1111122 
COMPS,ioos:station:USF.COMPS:ANC:1,2012-10-01T18:24:00Z,28.1930,-82.7890,0.566,1111122 
COMPS,ioos:station:USF.COMPS:ANC:1,2012-10-01T18:30:00Z,28.1930,-82.7890,0.553,1111122 
COMPS,ioos:station:USF.COMPS:ANC:1,2012-10-01T18:36:00Z,28.1930,-82.7890,0.546,1111122 
COMPS,ioos:station:USF.COMPS:ANC:1,2012-10-01T18:42:00Z,28.1930,-82.7890,0.538,1111122 
COMPS,ioos:station:USF.COMPS:ANC:1,2012-10-01T18:48:00Z,28.1930,-82.7890,0.527,1111122 
COMPS,ioos:station:USF.COMPS:ANC:1,2012-10-01T18:54:00Z,28.1930,-82.7890,0.533,1111122 
COMPS,ioos:station:USF.COMPS:ANC:1,2012-10-01T19:00:00Z,28.1930,-82.7890,0.516,1111122 
COMPS,ioos:station:USF.COMPS:ANC:1,2012-10-01T19:06:00Z,28.1930,-82.7890,0.492,1111122 
COMPS,ioos:station:USF.COMPS:ANC:1,2012-10-01T19:12:00Z,28.1930,-82.7890,0.48,1111122 
COMPS,ioos:station:USF.COMPS:ANC:1,2012-10-01T19:18:00Z,28.1930,-82.7890,0.474,1111122 
COMPS,ioos:station:USF.COMPS:ANC:1,2012-10-01T19:24:00Z,28.1930,-82.7890,0.467,1111122 
COMPS,ioos:station:USF.COMPS:ANC:1,2012-10-01T19:30:00Z,28.1930,-82.7890,0.448,1111122 
COMPS,ioos:station:USF.COMPS:ANC:1,2012-10-01T19:36:00Z,28.1930,-82.7890,0.415,1111122 
COMPS,ioos:station:USF.COMPS:ANC:1,2012-10-01T19:42:00Z,28.1930,-82.7890,0.404,1111122 
COMPS,ioos:station:USF.COMPS:ANC:1,2012-10-01T19:48:00Z,28.1930,-82.7890,0.376,1111122 
COMPS,ioos:station:USF.COMPS:ANC:1,2012-10-01T19:54:00Z,28.1930,-82.7890,0.367,1111122 
COMPS,ioos:station:USF.COMPS:ANC:1,2012-10-01T20:00:00Z,28.1930,-82.7890,0.349,1111122 
COMPS,ioos:station:USF.COMPS:ANC:1,2012-10-01T20:06:00Z,28.1930,-82.7890,0.33,1111122 
COMPS,ioos:station:USF.COMPS:ANC:1,2012-10-01T20:12:00Z,28.1930,-82.7890,0.323,1111122 
COMPS,ioos:station:USF.COMPS:ANC:1,2012-10-01T20:18:00Z,28.1930,-82.7890,0.31,1111122 
COMPS,ioos:station:USF.COMPS:ANC:1,2012-10-01T20:24:00Z,28.1930,-82.7890,0.285,1111122 
COMPS,ioos:station:USF.COMPS:ANC:1,2012-10-01T20:30:00Z,28.1930,-82.7890,0.253,1111122 
COMPS,ioos:station:USF.COMPS:ANC:1,2012-10-01T20:36:00Z,28.1930,-82.7890,0.228,1111122 
COMPS,ioos:station:USF.COMPS:ANC:1,2012-10-01T20:42:00Z,28.1930,-82.7890,0.208,1111122 
COMPS,ioos:station:USF.COMPS:ANC:1,2012-10-01T20:48:00Z,28.1930,-82.7890,0.193,1111122 
COMPS,ioos:station:USF.COMPS:ANC:1,2012-10-01T20:54:00Z,28.1930,-82.7890,0.181,1111122 
COMPS,ioos:station:USF.COMPS:ANC:1,2012-10-01T21:00:00Z,28.1930,-82.7890,0.159,1111122 
COMPS,ioos:station:USF.COMPS:ANC:1,2012-10-01T21:06:00Z,28.1930,-82.7890,0.139,1111122 
COMPS,ioos:station:USF.COMPS:ANC:1,2012-10-01T21:12:00Z,28.1930,-82.7890,0.129,1111122 
COMPS,ioos:station:USF.COMPS:ANC:1,2012-10-01T21:18:00Z,28.1930,-82.7890,0.127,1111122 
COMPS,ioos:station:USF.COMPS:ANC:1,2012-10-01T21:24:00Z,28.1930,-82.7890,0.12,1111122 
COMPS,ioos:station:USF.COMPS:ANC:1,2012-10-01T21:30:00Z,28.1930,-82.7890,0.103,1111122 
COMPS,ioos:station:USF.COMPS:ANC:1,2012-10-01T21:36:00Z,28.1930,-82.7890,0.086,1111122 
COMPS,ioos:station:USF.COMPS:ANC:1,2012-10-01T21:42:00Z,28.1930,-82.7890,0.063,1111122 
COMPS,ioos:station:USF.COMPS:ANC:1,2012-10-01T21:48:00Z,28.1930,-82.7890,0.052,1111122 
COMPS,ioos:station:USF.COMPS:ANC:1,2012-10-01T21:54:00Z,28.1930,-82.7890,0.038,1111122 
COMPS,ioos:station:USF.COMPS:ANC:1,2012-10-01T22:00:00Z,28.1930,-82.7890,0.022,1111122 
COMPS,ioos:station:USF.COMPS:ANC:1,2012-10-01T22:06:00Z,28.1930,-82.7890,0.013,1111122 
COMPS,ioos:station:USF.COMPS:ANC:1,2012-10-01T22:12:00Z,28.1930,-82.7890,0.008,1111122 
COMPS,ioos:station:USF.COMPS:ANC:1,2012-10-01T22:18:00Z,28.1930,-82.7890,0.003,1111122 
COMPS,ioos:station:USF.COMPS:ANC:1,2012-10-01T22:24:00Z,28.1930,-82.7890,-0.003,1111122 
COMPS,ioos:station:USF.COMPS:ANC:1,2012-10-01T22:30:00Z,28.1930,-82.7890,-0.004,1111122 
COMPS,ioos:station:USF.COMPS:ANC:1,2012-10-01T22:36:00Z,28.1930,-82.7890,-0.01,1111122 
COMPS,ioos:station:USF.COMPS:ANC:1,2012-10-01T22:42:00Z,28.1930,-82.7890,-0.018,1111122 
COMPS,ioos:station:USF.COMPS:ANC:1,2012-10-01T22:48:00Z,28.1930,-82.7890,-0.027,1111122 
COMPS,ioos:station:USF.COMPS:ANC:1,2012-10-01T22:54:00Z,28.1930,-82.7890,-0.03,1111122 
COMPS,ioos:station:USF.COMPS:ANC:1,2012-10-01T23:00:00Z,28.1930,-82.7890,-0.032,1111122 
COMPS,ioos:station:USF.COMPS:ANC:1,2012-10-01T23:06:00Z,28.1930,-82.7890,-0.035,1111122 
COMPS,ioos:station:USF.COMPS:ANC:1,2012-10-01T23:12:00Z,28.1930,-82.7890,-0.027,1111122 
COMPS,ioos:station:USF.COMPS:ANC:1,2012-10-01T23:18:00Z,28.1930,-82.7890,-0.025,1111122 
COMPS,ioos:station:USF.COMPS:ANC:1,2012-10-01T23:24:00Z,28.1930,-82.7890,-0.023,1111122 
COMPS,ioos:station:USF.COMPS:ANC:1,2012-10-01T23:30:00Z,28.1930,-82.7890,-0.014,1111122 
COMPS,ioos:station:USF.COMPS:ANC:1,2012-10-01T23:36:00Z,28.1930,-82.7890,-0.017,1111122 
COMPS,ioos:station:USF.COMPS:ANC:1,2012-10-01T23:42:00Z,28.1930,-82.7890,-0.03,1111122 
COMPS,ioos:station:USF.COMPS:ANC:1,2012-10-01T23:48:00Z,28.1930,-82.7890,-0.025,1111122 
COMPS,ioos:station:USF.COMPS:ANC:1,2012-10-01T23:54:00Z,28.1930,-82.7890,-0.023,1111122 
COMPS,ioos:station:USF.COMPS:ANC:1,2012-10-02T00:00:00Z,28.1930,-82.7890,-0.03,1111122 
COMPS,ioos:station:USF.COMPS:ANC:1,2012-10-02T00:06:00Z,28.1930,-82.7890,-0.03,1111122 
COMPS,ioos:station:USF.COMPS:ANC:1,2012-10-02T00:12:00Z,28.1930,-82.7890,-0.023,1111122 
COMPS,ioos:station:USF.COMPS:ANC:1,2012-10-02T00:18:00Z,28.1930,-82.7890,-0.017,1111122 
COMPS,ioos:station:USF.COMPS:ANC:1,2012-10-02T00:24:00Z,28.1930,-82.7890,-0.006,1111122 
COMPS,ioos:station:USF.COMPS:ANC:1,2012-10-02T00:30:00Z,28.1930,-82.7890,0.012,1111122 
COMPS,ioos:station:USF.COMPS:ANC:1,2012-10-02T00:36:00Z,28.1930,-82.7890,0.018,1111122 
COMPS,ioos:station:USF.COMPS:ANC:1,2012-10-02T00:42:00Z,28.1930,-82.7890,0.038,1111122 
COMPS,ioos:station:USF.COMPS:ANC:1,2012-10-02T00:48:00Z,28.1930,-82.7890,0.058,1111122 
COMPS,ioos:station:USF.COMPS:ANC:1,2012-10-02T00:54:00Z,28.1930,-82.7890,0.064,1111122 
COMPS,ioos:station:USF.COMPS:ANC:1,2012-10-02T01:00:00Z,28.1930,-82.7890,0.073,1111122 
COMPS,ioos:station:USF.COMPS:ANC:1,2012-10-02T01:06:00Z,28.1930,-82.7890,0.09,1111122 
COMPS,ioos:station:USF.COMPS:ANC:1,2012-10-02T01:12:00Z,28.1930,-82.7890,0.103,1111122 
COMPS,ioos:station:USF.COMPS:ANC:1,2012-10-02T01:18:00Z,28.1930,-82.7890,0.116,1111122 
COMPS,ioos:station:USF.COMPS:ANC:1,2012-10-02T01:24:00Z,28.1930,-82.7890,0.137,1111122 
COMPS,ioos:station:USF.COMPS:ANC:1,2012-10-02T01:30:00Z,28.1930,-82.7890,0.158,1111122 
COMPS,ioos:station:USF.COMPS:ANC:1,2012-10-02T01:36:00Z,28.1930,-82.7890,0.176,1111122 
COMPS,ioos:station:USF.COMPS:ANC:1,2012-10-02T01:42:00Z,28.1930,-82.7890,0.184,1111122 
COMPS,ioos:station:USF.COMPS:ANC:1,2012-10-02T01:48:00Z,28.1930,-82.7890,0.196,1111122 
COMPS,ioos:station:USF.COMPS:ANC:1,2012-10-02T01:54:00Z,28.1930,-82.7890,0.199,1111122 
COMPS,ioos:station:USF.COMPS:ANC:1,2012-10-02T02:00:00Z,28.1930,-82.7890,0.219,1111122 
COMPS,ioos:station:USF.COMPS:ANC:1,2012-10-02T02:06:00Z,28.1930,-82.7890,0.236,1111122 
COMPS,ioos:station:USF.COMPS:ANC:1,2012-10-02T02:12:00Z,28.1930,-82.7890,0.252,1111122 
COMPS,ioos:station:USF.COMPS:ANC:1,2012-10-02T02:18:00Z,28.1930,-82.7890,0.269,1111122 
COMPS,ioos:station:USF.COMPS:ANC:1,2012-10-02T02:24:00Z,28.1930,-82.7890,0.282,1111122 
COMPS,ioos:station:USF.COMPS:ANC:1,2012-10-02T02:30:00Z,28.1930,-82.7890,0.304,1111122 
COMPS,ioos:station:USF.COMPS:ANC:1,2012-10-02T02:36:00Z,28.1930,-82.7890,0.327,1111122 
COMPS,ioos:station:USF.COMPS:ANC:1,2012-10-02T02:42:00Z,28.1930,-82.7890,0.343,1111122 
COMPS,ioos:station:USF.COMPS:ANC:1,2012-10-02T02:48:00Z,28.1930,-82.7890,0.37,1111122 
COMPS,ioos:station:USF.COMPS:ANC:1,2012-10-02T02:54:00Z,28.1930,-82.7890,0.386,1111122 
COMPS,ioos:station:USF.COMPS:ANC:1,2012-10-02T03:00:00Z,28.1930,-82.7890,0.394,1111122 